When you browse on this site, cookies collect data to enhance your experience and personalize the content and advertising you see.
Visit our Privacy Policy to learn more. By continuing to use the site, you agree to this use of cookies and data.

Stündliche Wetter Berdytschev

Heute, 25 September, Freitag

Zeit Temperatur Niederschläge Wind Luftdruck Luftfeuchtigkeit
00:00 +17°C° 0 mm 2 m/S 736 mmHg 47%
01:00 +16°C° 0 mm 2 m/S 736 mmHg 48%
02:00 +16°C° 0 mm 2 m/S 736 mmHg 50%
03:00 +16°C° 0 mm 2 m/S 736 mmHg 54%
04:00 +15°C° 0 mm 2 m/S 736 mmHg 59%
05:00 +15°C° 0 mm 2 m/S 736 mmHg 63%
06:00 +16°C° 0 mm 3 m/S 735 mmHg 65%
07:00 +17°C° 0 mm 3 m/S 735 mmHg 67%
08:00 +19°C° 0 mm 4 m/S 735 mmHg 69%
09:00 +21°C° 0 mm 4 m/S 735 mmHg 62%
10:00 +23°C° 0 mm 5 m/S 735 mmHg 55%
11:00 +26°C° 0 mm 6 m/S 735 mmHg 48%
12:00 +27°C° 0 mm 6 m/S 735 mmHg 45%
13:00 +27°C° 0 mm 6 m/S 734 mmHg 43%
14:00 +28°C° 0 mm 6 m/S 734 mmHg 40%
15:00 +27°C° 0 mm 5 m/S 733 mmHg 43%
16:00 +26°C° 0 mm 4 m/S 733 mmHg 45%
17:00 +25°C° 0 mm 4 m/S 733 mmHg 48%
18:00 +23°C° 0.1 mm 4 m/S 732 mmHg 49%
19:00 +22°C° 0.1 mm 4 m/S 732 mmHg 50%
20:00 +22°C° 0.1 mm 5 m/S 732 mmHg 51%
21:00 +21°C° 0.3 mm 5 m/S 732 mmHg 58%
22:00 +20°C° 0.3 mm 5 m/S 732 mmHg 66%
23:00 +19°C° 0.3 mm 5 m/S 732 mmHg 73%

Morgen, 26 September, Samstag

Zeit Temperatur Niederschläge Wind Luftdruck Luftfeuchtigkeit
00:00 +17°C° 0.2 mm 5 m/S 732 mmHg 75%
01:00 +17°C° 0.2 mm 5 m/S 732 mmHg 77%
02:00 +17°C° 0.2 mm 5 m/S 732 mmHg 79%
03:00 +16°C° 0 mm 5 m/S 731 mmHg 79%
04:00 +15°C° 0 mm 5 m/S 731 mmHg 78%
05:00 +15°C° 0 mm 5 m/S 731 mmHg 78%
06:00 +16°C° 0 mm 6 m/S 731 mmHg 74%
07:00 +17°C° 0 mm 6 m/S 731 mmHg 71%
08:00 +17°C° 0 mm 7 m/S 731 mmHg 68%
09:00 +20°C° 0 mm 7 m/S 731 mmHg 62%
10:00 +22°C° 0 mm 8 m/S 731 mmHg 56%
11:00 +24°C° 0 mm 8 m/S 731 mmHg 51%
12:00 +26°C° 0 mm 8 m/S 731 mmHg 48%
13:00 +26°C° 0 mm 8 m/S 731 mmHg 45%
14:00 +27°C° 0 mm 8 m/S 730 mmHg 42%
15:00 +26°C° 0 mm 7 m/S 730 mmHg 44%
16:00 +26°C° 0 mm 6 m/S 729 mmHg 46%
17:00 +25°C° 0 mm 5 m/S 729 mmHg 48%
18:00 +23°C° 0 mm 5 m/S 729 mmHg 48%
19:00 +23°C° 0 mm 6 m/S 729 mmHg 49%
20:00 +22°C° 0 mm 6 m/S 728 mmHg 50%
21:00 +21°C° 0 mm 7 m/S 728 mmHg 55%
22:00 +21°C° 0 mm 7 m/S 728 mmHg 59%
23:00 +20°C° 0 mm 7 m/S 728 mmHg 63%

übermorgen, 27 September, Sonntag

Zeit Temperatur Niederschläge Wind Luftdruck Luftfeuchtigkeit
00:00 +20°C° 0 mm 7 m/S 728 mmHg 64%
01:00 +20°C° 0 mm 8 m/S 728 mmHg 64%
02:00 +20°C° 0 mm 8 m/S 728 mmHg 65%
03:00 +20°C° 0.1 mm 8 m/S 727 mmHg 65%
04:00 +18°C° 0.1 mm 8 m/S 727 mmHg 65%
05:00 +18°C° 0.1 mm 9 m/S 726 mmHg 65%
06:00 +18°C° 0.9 mm 9 m/S 726 mmHg 71%
07:00 +17°C° 0.9 mm 10 m/S 726 mmHg 77%
08:00 +17°C° 0.9 mm 11 m/S 726 mmHg 83%
09:00 +17°C° 0.9 mm 10 m/S 727 mmHg 79%
10:00 +17°C° 0.9 mm 10 m/S 728 mmHg 74%
11:00 +18°C° 0.9 mm 9 m/S 729 mmHg 70%
12:00 +18°C° 0 mm 8 m/S 730 mmHg 65%
13:00 +17°C° 0 mm 7 m/S 731 mmHg 60%
14:00 +17°C° 0 mm 7 m/S 732 mmHg 55%
15:00 +17°C° 0 mm 5 m/S 733 mmHg 57%
16:00 +17°C° 0 mm 4 m/S 733 mmHg 59%
17:00 +17°C° 0 mm 2 m/S 734 mmHg 61%
18:00 +16°C° 0 mm 2 m/S 735 mmHg 64%
19:00 +14°C° 0 mm 1 m/S 735 mmHg 68%
20:00 +13°C° 0 mm 1 m/S 736 mmHg 72%
21:00 +13°C° 0 mm 2 m/S 736 mmHg 74%
22:00 +13°C° 0 mm 2 m/S 736 mmHg 75%
23:00 +11°C° 0 mm 3 m/S 737 mmHg 76%

28 September, Montag

Zeit Temperatur Niederschläge Wind Luftdruck Luftfeuchtigkeit
00:00 +11°C° 0 mm 3 m/S 737 mmHg 75%
01:00 +11°C° 0 mm 3 m/S 737 mmHg 75%
02:00 +12°C° 0 mm 3 m/S 737 mmHg 74%
03:00 +11°C° 0.1 mm 3 m/S 737 mmHg 76%
04:00 +11°C° 0.1 mm 4 m/S 738 mmHg 77%
05:00 +11°C° 0.1 mm 4 m/S 738 mmHg 78%
06:00 +12°C° 0.1 mm 4 m/S 738 mmHg 77%
07:00 +13°C° 0.1 mm 4 m/S 738 mmHg 75%
08:00 +13°C° 0.1 mm 4 m/S 738 mmHg 74%
09:00 +15°C° 0 mm 5 m/S 738 mmHg 66%
10:00 +17°C° 0 mm 5 m/S 738 mmHg 59%
11:00 +20°C° 0 mm 5 m/S 738 mmHg 52%
12:00 +20°C° 0.1 mm 5 m/S 738 mmHg 51%
13:00 +21°C° 0.1 mm 5 m/S 738 mmHg 50%
14:00 +22°C° 0.1 mm 6 m/S 738 mmHg 50%
15:00 +21°C° 0 mm 4 m/S 737 mmHg 51%
16:00 +21°C° 0 mm 3 m/S 737 mmHg 53%
17:00 +20°C° 0 mm 2 m/S 737 mmHg 55%
18:00 +18°C° 0 mm 2 m/S 737 mmHg 57%
19:00 +18°C° 0 mm 1 m/S 737 mmHg 60%
20:00 +15°C° 0 mm 1 m/S 737 mmHg 62%
21:00 +15°C° 0 mm 1 m/S 736 mmHg 63%
22:00 +14°C° 0 mm 1 m/S 736 mmHg 64%
23:00 +13°C° 0 mm 0 m/S 736 mmHg 65%

29 September, Dienstag

Zeit Temperatur Niederschläge Wind Luftdruck Luftfeuchtigkeit
00:00 +14°C° 0 mm 1 m/S 736 mmHg 65%
01:00 +14°C° 0 mm 2 m/S 736 mmHg 64%
02:00 +13°C° 0 mm 3 m/S 736 mmHg 64%
03:00 +13°C° 0 mm 3 m/S 735 mmHg 64%
04:00 +13°C° 0 mm 3 m/S 735 mmHg 64%
05:00 +13°C° 0 mm 3 m/S 735 mmHg 65%
06:00 +14°C° 0 mm 3 m/S 734 mmHg 72%
07:00 +14°C° 0 mm 4 m/S 734 mmHg 79%
08:00 +15°C° 0 mm 5 m/S 734 mmHg 86%
09:00 +17°C° 0 mm 5 m/S 734 mmHg 78%
10:00 +19°C° 0 mm 5 m/S 733 mmHg 71%
11:00 +21°C° 0 mm 5 m/S 733 mmHg 64%
12:00 +21°C° 0.5 mm 5 m/S 732 mmHg 64%
13:00 +21°C° 0.5 mm 5 m/S 732 mmHg 63%
14:00 +22°C° 0.5 mm 4 m/S 731 mmHg 62%
15:00 +19°C° 1 mm 5 m/S 731 mmHg 72%
16:00 +16°C° 1 mm 5 m/S 731 mmHg 82%
17:00 +13°C° 1 mm 5 m/S 730 mmHg 91%
18:00 +13°C° 2.1 mm 5 m/S 730 mmHg 92%
19:00 +13°C° 2.1 mm 5 m/S 730 mmHg 94%
20:00 +13°C° 2.1 mm 4 m/S 730 mmHg 95%
21:00 +13°C° 2.6 mm 5 m/S 730 mmHg 95%
22:00 +13°C° 2.6 mm 6 m/S 729 mmHg 95%
23:00 +11°C° 2.6 mm 6 m/S 729 mmHg 94%

30 September, Mittwoch

Zeit Temperatur Niederschläge Wind Luftdruck Luftfeuchtigkeit
00:00 +11°C° 3.6 mm 7 m/S 729 mmHg 94%
01:00 +11°C° 3.6 mm 7 m/S 728 mmHg 93%
02:00 +10°C° 3.6 mm 8 m/S 728 mmHg 92%
03:00 +10°C° 2.6 mm 7 m/S 728 mmHg 92%
04:00 +10°C° 2.6 mm 7 m/S 728 mmHg 93%
05:00 +10°C° 2.6 mm 6 m/S 728 mmHg 93%
06:00 +10°C° 0.9 mm 6 m/S 728 mmHg 93%
07:00 +10°C° 0.9 mm 6 m/S 728 mmHg 92%
08:00 +10°C° 0.9 mm 6 m/S 729 mmHg 92%
09:00 +11°C° 0.5 mm 6 m/S 729 mmHg 89%
10:00 +11°C° 0.5 mm 6 m/S 729 mmHg 86%
11:00 +11°C° 0.5 mm 7 m/S 730 mmHg 84%
12:00 +11°C° 0.1 mm 6 m/S 730 mmHg 83%
13:00 +11°C° 0.1 mm 6 m/S 730 mmHg 82%
14:00 +11°C° 0.1 mm 6 m/S 730 mmHg 82%
15:00 +11°C° 0 mm 6 m/S 730 mmHg 81%
16:00 +12°C° 0 mm 5 m/S 731 mmHg 80%
17:00 +12°C° 0 mm 4 m/S 731 mmHg 79%
18:00 +11°C° 0 mm 4 m/S 731 mmHg 82%
19:00 +11°C° 0 mm 4 m/S 731 mmHg 85%
20:00 +10°C° 0 mm 4 m/S 732 mmHg 89%
21:00 +10°C° 0 mm 4 m/S 732 mmHg 89%
22:00 +8°C° 0 mm 4 m/S 732 mmHg 90%
23:00 +8°C° 0 mm 4 m/S 733 mmHg 90%
Mehr zeigen